(1) Ceres
ephemeris date magn radius delta ra dec elong phase
Today31 Aug 20258.12.953 AU2.109 AU01h18m-07°23'139.9°12.7°
Opposition2 Oct 20257.62.939 AU1.961 AU00h57m-10°13'164.9°5.1°
(1) Ceres - 2025-08-31
astro.vanbuitenen.nl


 
-1 year
-1 month
-1 day
Now
+1 day
+1 month
+1 year

The interactive orbit chart above shows the body's path through the solar system and its position at the given date. Green and blue lines are shown perpendicular to the ecliptic plane: Green if the path is above the ecliptic plane, blue if it is below. (Left-click and drag to rotate the view; Right-click and drag to move the view; Use scroll wheel to zoom in our out.)

The orbital elements of Ceres are:

            e (Eccentricity)                : 0.0794013
            a (Semimajor axis)              : 2.7660512
            i (Inclination)                 : 10.58780
            Ω (Longitude of ascending node) : 80.25220
            ω (Argument of perihelion)      : 73.27343
            M (Mean anomaly)                : 188.70270
            Epoch                           : 2025 May 05

            L (Longitude of perihelion)     : 153.25250
            B (Latitude of perihelion)      : 10.13498
            P (Orbital period in years)     : 4.60            
        

The light curve chart below shows the estimated development of the minor planet's magnitude.


The all-sky chart below shows the path of the minor planet over the same period as the light curve. The current position is marked yellow.





The following chart shows the path of the minor planet in the next few days. The field of view is optimized for (~10x50) binoculars and finderscopes. A more printer-friendly version of the same chart can be found below.




Ephemerides:
Date       Time       RA (2000)    DEC (2000)    delta   radius  elong  phase   PA    magn
2025-08-31 00:00 UT   01 18 53.2   -07 23 35     2.109    2.953  139.9   12.7   265    8.1 
2025-08-31 20:55 UT   01 18 34.7   -07 28 06     2.101    2.953  140.7   12.5   266    8.0 
2025-09-01 00:00 UT   01 18 31.9   -07 28 46     2.100    2.953  140.9   12.5   266    8.0 
2025-09-02 00:00 UT   01 18 09.3   -07 33 60     2.092    2.952  141.8   12.2   267    8.0 
2025-09-03 00:00 UT   01 17 45.4   -07 39 17     2.085    2.952  142.8   11.9   267    8.0 
2025-09-04 00:00 UT   01 17 20.2   -07 44 37     2.077    2.951  143.8   11.6   268    8.0 
2025-09-05 00:00 UT   01 16 53.7   -07 49 59     2.069    2.951  144.8   11.4   269    8.0 
2025-09-06 00:00 UT   01 16 25.9   -07 55 24     2.062    2.951  145.8   11.1   270    8.0 
2025-09-07 00:00 UT   01 15 56.8   -08 00 52     2.055    2.950  146.8   10.8   271    7.9 
2025-09-08 00:00 UT   01 15 26.5   -08 06 21     2.048    2.950  147.7   10.5   272    7.9 
2025-09-09 00:00 UT   01 14 55.0   -08 11 51     2.042    2.949  148.7   10.2   273    7.9 
2025-09-10 00:00 UT   01 14 22.3   -08 17 23     2.036    2.949  149.7    9.9   274    7.9 
2025-09-11 00:00 UT   01 13 48.4   -08 22 55     2.030    2.949  150.6    9.6   275    7.9 
2025-09-12 00:00 UT   01 13 13.4   -08 28 28     2.024    2.948  151.6    9.3   277    7.8 
2025-09-13 00:00 UT   01 12 37.2   -08 34 01     2.018    2.948  152.5    9.1   278    7.8 
2025-09-14 00:00 UT   01 11 59.9   -08 39 35     2.013    2.947  153.5    8.8   280    7.8 
2025-09-15 00:00 UT   01 11 21.5   -08 45 07     2.008    2.947  154.4    8.5   281    7.8 
2025-09-16 00:00 UT   01 10 42.1   -08 50 39     2.003    2.946  155.3    8.2   283    7.8 
2025-09-17 00:00 UT   01 10 01.7   -08 56 09     1.998    2.946  156.2    7.9   285    7.7 
2025-09-18 00:00 UT   01 09 20.3   -09 01 38     1.994    2.945  157.1    7.6   287    7.7 
2025-09-19 00:00 UT   01 08 37.9   -09 07 04     1.990    2.945  157.9    7.4   289    7.7 
2025-09-20 00:00 UT   01 07 54.7   -09 12 28     1.986    2.945  158.8    7.1   291    7.7 
2025-09-21 00:00 UT   01 07 10.5   -09 17 49     1.982    2.944  159.6    6.8   293    7.7 
2025-09-22 00:00 UT   01 06 25.6   -09 23 07     1.979    2.944  160.3    6.6   296    7.7 
2025-09-23 00:00 UT   01 05 39.9   -09 28 21     1.976    2.943  161.0    6.4   299    7.7 
2025-09-24 00:00 UT   01 04 53.5   -09 33 31     1.973    2.943  161.7    6.1   302    7.6 
2025-09-25 00:00 UT   01 04 06.4   -09 38 37     1.971    2.942  162.4    5.9   305    7.6 
2025-09-26 00:00 UT   01 03 18.6   -09 43 37     1.969    2.942  162.9    5.7   309    7.6 
2025-09-27 00:00 UT   01 02 30.3   -09 48 32     1.967    2.941  163.4    5.6   312    7.6 
2025-09-28 00:00 UT   01 01 41.5   -09 53 22     1.965    2.941  163.9    5.4   316    7.6 
2025-09-29 00:00 UT   01 00 52.2   -09 58 05     1.964    2.940  164.3    5.3   321    7.6 
2025-09-30 00:00 UT   01 00 02.4   -10 02 42     1.963    2.940  164.5    5.2   325    7.6 


    Terminology:
            
    delta:  distance between minor planet and earth in AU
    radius: distance between minor planet and sun in AU
    magn:   magnitude (brightness) estimate    
    ra:     right ascension in hours (24h = 360deg)
    dec:    declination in degrees
    elong:  elongation in degrees (angle sun-earth-minor planet)    
    phase:  phase angle in degrees (angle sun-minor planet-earth)        
    AU:     Astronomical Unit (mean distance between earth and sun: 149597870.7 km
    

Orbital elements provided by the MPC (Minor Planet Center).
Calculations by a modified version of AAPlus, a C# implementation of the AA+ project by PJ Naughter from the algorithms presented in the book "Astronomical Algorithms" by Jean Meeus.
NGC2000 dso catalog and star labels from VizieR as provided by the Strasbourg astronomical Data Center.
Tycho2 catalog from the ESO archive.